Simultaneous Nadir Overpasses (SNOs) Predictions

Prediction of SNOs between LANDSAT-8 and NOAA-19 Satellite Orbit:

Table of predicted SNOs for the next 14.0 days since TLE Epoch: 6/12/2021
Index Date (LANDSAT-8) Time (LANDSAT-8) Lat,Lon (LANDSAT-8) SZA (LANDSAT-8 ) Date (NOAA-19) Time (NOAA-19) Lat,Lon (NOAA-19) SZA (NOAA-19 ) Distance(km) Time Diff (sec)
1 06/14/2021 04:01:33 80.40, 150.82 58.58 06/14/2021 04:01:42 80.39, 150.88 58.58 1.26 9
2 06/16/2021 09:35:18 -80.40,-112.56 121.52 06/16/2021 09:34:48 -80.41,-112.64 121.53 1.63 30
3 06/16/2021 10:24:44 80.41, 55.13 58.49 06/16/2021 10:25:51 80.38, 55.07 58.49 2.79 67
4 06/18/2021 15:09:02 80.41, -15.89 58.44 06/18/2021 15:08:01 80.40, -15.72 58.42 3.31 61
5 06/18/2021 15:58:29 -80.41, 151.75 121.57 06/18/2021 15:58:57 -80.40, 151.68 121.58 2.39 28
6 06/20/2021 21:32:13 80.42,-111.61 58.42 06/20/2021 21:32:10 80.40,-111.59 58.40 2.45 3
7 06/23/2021 03:05:57 -80.43, -14.99 121.58 06/23/2021 03:05:16 -80.41, -15.02 121.61 1.74 41
8 06/23/2021 03:55:24 80.39, 152.34 58.37 06/23/2021 03:56:18 80.40, 152.52 58.41 3.35 54
9 06/25/2021 08:39:41 80.43, 81.59 58.47 06/25/2021 08:38:28 80.42, 81.65 58.44 1.47 73



Historial Predications of SNOs between LANDSAT-8 and NOAA-19
